Location: Krywa?d
(50.2139°N, 18.6466°E)
Time: 20:38:53
(UTC+00:00)

Daily predictions for brighter satellites

Satellite Brightness Start Highest point End
(mag) Time Altitude Azimuth Time Altitude Azimuth Time Altitude Azimuth
CZ-4B R/B 3.0 15:59:26 10° NE 16:01:47 18° E 16:04:05 10° SE
Cosmos 1634 Rocket 4.3 15:56:12 10° NNW 16:02:29 79° W 16:08:45 10° S
CZ-4B R/B 3.3 15:58:19 10° SSE 16:03:54 81° ENE 16:09:35 10° NNW
Cosmos 1939 Rocket 3.3 16:01:01 10° SE 16:04:51 40° ENE 16:08:40 10° N
Cosmos 1315 Rocket 3.2 16:01:04 10° NNW 16:05:03 71° W 16:09:03 10° S
ATLAS 5 CENTAUR R/B 1.8 16:01:00 10° SW 16:05:04 65° NW 16:09:46 10° NE
Cosmos 2297 Rocket 4.3 16:02:24 10° WNW 16:06:18 19° NW 16:10:14 10° N
ATLAS 2AS CENTAUR R/B 3.6 15:59:02 10° WSW 16:06:47 53° NW 16:14:20 10° NE
Cosmos 2228 3.1 16:03:41 10° NNW 16:07:58 84° W 16:12:16 10° S
Okean O Rocket 1.6 16:03:39 10° SSE 16:08:04 74° ENE 16:12:30 10° N
Cosmos 2344 4.4 16:00:26 10° NW 16:08:37 49° NNE 16:19:33 10° ESE
SL-24 R/B 4.2 16:04:22 10° SSE 16:08:46 86° ENE 16:13:37 10° NNW
Cosmos 1606 Rocket 3.6 16:04:30 10° N 16:08:56 89° ENE 16:13:22 10° S
H-2A R/B 2.2 16:04:58 10° NNE 16:09:23 57° ESE 16:13:39 10° S
Okean-O 3.8 16:07:25 10° ESE 16:10:48 22° ENE 16:14:12 10° N
Cosmos 158 Rocket 4.4 16:05:58 10° NNW 16:11:05 45° ENE 16:16:15 10° SE
SeaSat 1 3.4 16:06:37 10° NNE 16:11:19 45° NW 16:16:00 10° WSW
YAOGAN 1 3.7 16:11:29 10° ESE 16:14:48 22° ENE 16:18:09 10° NNE
Cosmos 1892 Rocket 3.7 16:10:56 10° S 16:15:07 50° E 16:19:19 10° NNE
TELKOM 3 4.1 16:13:09 10° SW 16:15:12 31° SSE 16:17:11 12° E
MOS 1 Rocket 4.2 16:13:16 10° NE 16:16:44 23° E 16:20:09 10° SE
COSMOS 2455 3.0 16:11:16 10° SSW 16:17:09 59° ESE 16:23:05 10° NE
X-37B 2.6 16:15:23 10° SSW 16:17:48 20° SSE 16:20:12 10° ESE
Aureole 2 Rocket 2.7 16:19:14 10° S 16:22:04 37° ESE 16:24:51 11° NE
Landsat 5 3.6 16:19:08 10° N 16:23:04 71° WNW 16:26:53 10° SSW
CZ-4 R/B 2.3 16:19:56 10° ESE 16:23:22 27° ENE 16:26:45 10° N
SJ 16-02 2.1 16:20:05 10° SSE 16:24:03 33° ESE 16:28:00 10° NE
CZ-2D R/B 3.6 16:21:15 10° SE 16:24:53 41° ENE 16:28:32 10° N
CORIOLIS 4.5 16:20:02 10° S 16:25:25 74° WSW 16:30:49 10° NNW
Aureole 1 4.3 16:25:24 10° NNW 16:28:22 47° ENE 16:31:22 10° SE
Cosmos 923 Rocket 4.1 16:23:43 10° NNW 16:28:59 54° ENE 16:34:11 10° SE
SKYMED 2 4.1 16:26:20 10° NNE 16:30:25 38° E 16:34:28 10° SSE
USA 234 3.7 16:26:43 12° ENE 16:32:31 49° N 16:38:47 10° WNW
Cosmos 2263 Rocket 3.1 16:27:44 10° SW 16:33:15 49° NW 16:38:44 10° NNE
Cosmos 1680 Rocket 3.7 16:30:07 10° NNW 16:35:13 47° ENE 16:40:15 10° SE
Cosmos 1455 2.3 16:31:36 10° N 16:35:20 49° ENE 16:39:04 10° SSE
Iridium 4 Rocket 4.4 16:30:51 10° NNE 16:35:42 29° ENE 16:40:14 10° SE
Cosmos 1340 4.1 16:35:15 10° SE 16:37:45 17° E 16:37:48 17° E
IRS-1C Rocket 4.1 16:33:30 10° SE 16:38:38 57° ENE 16:43:48 10° N
ERS-2 3.2 16:37:25 16° NE 16:39:30 25° E 16:42:33 10° SSE
ARGOS 3.8 16:37:24 10° ESE 16:42:04 32° ENE 16:46:46 10° N
YAOGAN 3 4.5 16:39:06 10° SSE 16:43:27 81° ENE 16:47:50 10° NNW
Meteor 2-1 Rocket 4.1 16:38:25 10° N 16:43:59 68° ENE 16:49:28 10° SSE
Cosmos 1689 Rocket 4.1 16:45:27 14° SE 16:45:27 14° SE 16:46:13 10° SE
H-2A R/B 2.4 16:39:48 10° SE 16:44:30 41° ENE 16:49:20 10° N
Nadezhda 4 Rocket 4.0 16:39:48 10° S 16:45:55 61° E 16:52:00 10° NNE
Lacrosse 5 2.5 16:41:04 10° WNW 16:46:01 56° SW 16:50:57 10° SE
Cosmos 2058 Rocket 3.3 16:42:39 10° NNW 16:47:10 76° W 16:51:40 10° S
CZ-2C R/B 4.0 16:48:16 18° E 16:48:43 19° E 16:52:33 10° SE
BREEZE-M DEB (TANK) 1.6 16:46:34 10° W 16:48:53 80° S 16:49:48 31° E
CZ-4 R/B 4.3 16:50:11 10° SSE 16:54:19 77° ENE 16:58:29 10° N
COSMOS 2406 3.7 16:52:24 10° NNW 16:57:51 40° NE 17:01:51 17° ESE
Cosmos 1818 3.5 16:53:31 10° SSW 16:58:55 73° SE 17:02:59 18° NE
CSL-04 DEB 4.5 16:55:41 10° NNE 16:59:55 83° WNW 17:03:59 10° SSW
CZ-2C R/B 3.2 16:54:54 10° SSE 17:00:19 87° ENE 17:06:02 10° NNW
ISS -3.5 16:57:20 10° SW 17:00:39 57° SSE 17:01:49 34° E
CSL-04 Debris 4.4 16:55:46 10° SE 17:00:49 43° ENE 17:05:54 10° N
Cosmos 1703 3.5 16:59:34 10° SSE 17:03:16 43° E 17:05:29 21° NNE
Cosmos 1833 Rocket 3.2 16:59:52 10° NNW 17:05:07 38° NE 17:07:58 23° ESE
Cosmos 1626 Rocket 3.6 17:01:09 10° S 17:05:27 59° E 17:09:50 10° NNE
Cosmos 1937 Rocket 4.3 17:01:35 10° SSE 17:06:05 29° E 17:07:14 26° ENE
Okean 1-7 Rocket 3.9 17:04:15 10° SSW 17:08:48 74° W 17:13:23 10° N
CZ-4C R/B 3.7 17:04:32 10° WNW 17:09:26 29° NNW 17:13:56 15° NE
Cosmos 2082 Rocket 3.1 17:08:39 10° NNW 17:13:37 29° NE 17:14:41 27° ENE
Cosmos 1844 3.6 17:08:03 10° SSW 17:13:42 77° ESE 17:18:19 16° NNE
Cosmos 2112 Rocket 3.9 17:08:28 10° NNW 17:13:45 80° ENE 17:18:57 10° SSE
Helios 1A Rocket 2.9 17:10:44 10° SSE 17:14:48 60° ENE 17:18:54 10° N
SAR-Lupe-4 3.6 17:15:40 43° ENE 17:16:22 51° E 17:19:51 10° S
NOSS 3-1 (C) 4.0 17:10:17 10° NW 17:17:36 85° NE 17:26:12 10° SE
COSMO-SKYMED 1 2.7 17:14:15 10° N 17:18:36 74° WNW 17:22:56 10° SSW
Cosmos 1553 Rocket 4.3 17:14:55 10° N 17:21:03 45° ENE 17:27:06 10° SE
Cosmos 2026 Rocket 4.0 17:16:21 10° SSE 17:22:18 55° E 17:28:22 10° NNE
Cosmos 1844 Rocket 2.8 17:20:25 10° SW 17:26:05 75° WNW 17:30:44 16° NNE
Meteor 2-15 4.4 17:21:34 10° N 17:27:40 58° ENE 17:33:42 10° SSE
Meteor 2-8 Rocket 4.3 17:22:01 10° N 17:28:09 80° E 17:34:15 10° SSE
Cosmos 1758 Rocket 4.0 17:24:57 10° SSE 17:28:32 41° ESE 17:28:32 41° ESE
SAR-Lupe-1 3.9 17:32:05 61° NE 17:32:38 80° ESE 17:36:13 10° SSW
CZ-4B R/B 3.0 17:31:01 10° N 17:34:07 34° WNW 17:37:09 10° SW
NOSS 2-1 (C) 3.7 17:32:34 10° SSW 17:34:56 38° S 17:34:56 38° S
USA 229 DEB 3.8 17:29:01 10° NW 17:36:18 83° NE 17:41:51 21° SE
USA 229 3.8 17:29:08 10° NW 17:36:23 82° NE 17:41:51 21° SE
USA 267 4.5 17:38:44 21° SE 17:38:44 21° SE 17:42:57 10° S
Cosmos 1328 3.6 17:34:21 10° S 17:38:21 79° E 17:39:07 56° NNE
SJ-11-01 4.3 17:33:45 10° S 17:38:27 80° WSW 17:43:10 10° NNW
Cosmos 990 Rocket 3.8 17:33:33 10° SSW 17:38:45 79° ESE 17:41:19 31° NNE
NOSS 2-1 (D) 3.8 17:38:24 10° SSW 17:40:41 38° S 17:40:41 38° S
Cosmos 2278 Rocket 3.1 17:37:58 10° S 17:41:32 30° SE 17:41:32 30° SE
Cosmos-2242 3.0 17:39:26 10° N 17:43:16 62° NE 17:43:16 62° NE
S3M 4.1 17:38:43 10° N 17:44:36 45° ENE 17:45:05 44° E
Cosmos 1602 Rocket 3.7 17:42:29 10° SSW 17:46:50 74° WNW 17:50:02 18° N
Okean-O 3.4 17:42:38 10° S 17:46:57 53° W 17:51:20 10° NNW
CSL-04 Rocket 3.6 17:42:52 10° SSE 17:48:18 90° WSW 17:53:51 10° NNW
Meteor 1-11 4.1 17:44:32 10° S 17:50:09 64° E 17:52:58 30° NNE
YAOGAN 1 3.4 17:46:25 10° S 17:50:37 50° W 17:54:51 10° NNW
ATLAS 5 CENTAUR R/B 3.5 17:47:09 10° WNW 17:50:38 22° NNW 17:52:10 19° N
NOSS 3-1 (A) 4.0 17:44:25 10° NW 17:51:47 86° NE 17:57:05 26° SE
Cosmos 44 3.2 17:47:14 10° SW 17:52:05 86° SE 17:53:00 61° NE
X-37B 2.6 17:51:02 10° WSW 17:52:52 25° SW 17:52:52 25° SW
MOS 1 Rocket 4.3 17:51:08 10° N 17:55:12 41° WNW 17:59:13 10° SW
Ariane Rocket 4.3 17:58:03 27° NNE 17:58:03 27° NNE 18:00:36 10° N
CZ-4 R/B 3.1 17:54:34 10° SSW 17:58:18 34° W 18:01:58 10° NNW
Meteor 2-15 Rocket 4.3 17:52:08 10° N 17:58:20 76° E 18:04:29 10° SSE
ATLAS 2AS CENTAUR R/B 4.2 17:52:40 10° WNW 17:59:30 31° N 18:02:51 22° NNE
DMSP B5D1-3 4.4 17:56:51 22° NNE 18:00:14 85° WNW 18:05:20 10° SSW
MetOp-A 4.3 18:00:59 54° NE 18:00:59 54° NE 18:05:32 10° N
Cosmos 1428 Rocket 4.5 17:54:42 10° S 18:01:00 84° W 18:07:22 10° N
Cosmos 858 Rocket 4.3 17:56:05 10° SSW 18:01:21 75° ESE 18:01:40 72° ENE
SL-08 RB Rocket 3.6 18:01:07 75° S 18:01:30 87° WSW 18:06:01 10° NNW
SJ 16-02 3.0 17:58:39 10° WSW 18:02:37 32° WNW 18:05:19 17° N
COSMOS 2455 4.0 17:57:51 10° WSW 18:03:25 37° NW 18:06:57 20° NNE
CZ-3B R/B 3.2 18:02:00 10° WNW 18:04:59 47° SSW 18:08:40 24° SSE
Cosmos 1340 3.9 18:09:27 10° SW 18:12:37 40° W 18:12:37 40° W
ERS-2 4.0 18:11:59 25° NW 18:13:02 29° WNW 18:16:13 10° SW
USA 234 3.2 18:14:04 57° ENE 18:15:03 64° NNE 18:21:32 10° WNW
Iridium 4 Rocket 4.5 18:10:33 10° NNW 18:15:58 49° W 18:20:58 10° SSW
Cosmos 1898 Rocket 3.8 18:12:00 10° SW 18:17:13 63° WNW 18:18:36 46° N
ARGOS 4.1 18:17:00 10° S 18:22:10 47° W 18:27:22 10° NNW
H-2A R/B 3.7 18:19:34 10° SSW 18:24:02 32° W 18:28:39 10° NNW
Cosmos 2344 4.4 18:14:49 10° NW 18:24:02 75° SW 18:35:29 14° SSE
Meteor 1-27 4.3 18:21:28 10° NNW 18:27:06 73° W 18:28:17 55° SSW
CZ-2C R/B 2.7 18:29:46 80° W 18:29:46 80° W 18:35:15 10° SSW
ISS -0.6 18:34:06 10° W 18:34:48 15° W 18:34:48 15° W
COSMOS 2406 4.2 18:36:46 10° NW 18:42:16 45° WSW 18:44:01 35° SSW
Cosmos 1937 Rocket 4.3 18:42:39 10° SW 18:47:29 49° WNW 18:47:29 49° WNW
Cosmos 1833 Rocket 3.6 18:43:50 10° NW 18:49:09 45° WSW 18:49:44 43° SW
USA 281 4.1 18:58:07 38° N 18:58:07 38° N 19:02:08 10° NNW
Cosmos 2082 Rocket 3.1 18:52:30 10° NNW 18:56:34 46° NW 18:56:34 46° NW
CZ-4C R/B 4.0 18:54:38 10° NW 18:59:07 27° N 18:59:07 27° N
Cosmos 2278 Rocket 4.2 19:21:27 10° SW 19:23:28 22° WSW 19:23:28 22° WSW
ATLAS 2AS CENTAUR R/B 4.3 19:45:43 10° NW 19:50:17 29° NNW 19:50:17 29° NNW
